COSMOS 1691 DEB, 18565

Orbit data source: Space-Track

COSMOS 1691 DEB, 18565 is space debris in LEO originally from a launch on Wed, 09 Oct 1985 UTC launched from the Plesetsk Missile And Space Complex (PKMTR). Debris objects in space refer to the collection of defunct objects orbiting the Earth. Examples of debris include non-operational satellites, rocket bodies, and fragments generated from explosions, collisions, or faulty payload assembly.

Loading next visibility...
Identifier
18565, 1985-094U
Orbit
LEO
Country
Flag of CISCIS
Related business
Manufacturer
Unknown
Mission
Spacecraft
Bus & Motor
Unknown
Mass
Unknown
Launch date (UTC)
1985-10-09 (40 years ago)
Launch vehicle
Unknown
Launch site
Plesetsk Missile And Space Complex (PKMTR)
Object type
Payload
Rocket body
Debris
Shape & HBR
Unknown shape, 0.1 m
Radar Cross Section
Small (<0.1 m²)

Expand to show TLE details & history
Last TLE update: 1 day ago

TLE from 1 day ago
0 COSMOS 1691 DEB
1 18565U 85094U   26036.55403564  .00010166  00000-0  12180-1 0  9997
2 18565  82.4856 233.5551 0094648 131.8892 256.8406 13.64932458673201
Epoch: 2026-02-05T13:17Z
TLE epoch observation values (Epoch: 2026-02-05T13:17:48.679Z)
Latitude
27.45759°
Longitude
-97.69232°
Altitude
1,037.72 km
Speed
7.327 km/s
True Right ascension
15h 49m 51s
True Declination
27° 19' 21"
Sunlit
Object was in daylight at epoch
Visualization orbit readout
Latitude
Unknown
Longitude
Unknown
Altitude
Unknown
Speed
Unknown
Apparent Right ascension
Unknown
Apparent Declination
Unknown
Sunlit
N/A
Visualization observer readout
Local Sidereal Time
15:20:40
Azimuth
Unknown
Elevation
Unknown
Doppler factor
Unknown
Orbital elements
Apogee altitude
1,084.975 km
Perigee altitude
945.026 km
Semi-major axis
7,393.138 km
Eccentricity
0.00946
Inclination
82.4856°
RAAN
233.5551°
Arg. of periapsis
131.8892°
True anomaly
255.78739°
Mean anomaly
256.8406°
Eccentric anomaly
256.3137°
Mean motion
3.41429 °/min
Orbital period
105.44 mins
BSTAR
0.01218
Loading maneuver chart data...
Computing Atmospheric mass density...
Loading historical data...
Loading historical data...
Loading historical data...
Loading historical data...
Loading historical data...
Loading historical data...
Loading historical data...

Documentation

Showing up to 5 results
|